Weather in Gekhi-Chu

Russia / Chechen Republic     43°05′45″N   45°24′23″E
temp.,
°C
wind,
m/s
gust,
m/s
humid.,
%
clouds,
%
prec.,
mm/h
press.,
hPa
HPBL,
m
18 may, tue
tue1800:00+16nw1163100 0.0 100814
03:00+13sw228981 1.1 100943
06:00+14n1392100 0.1 1011334
09:00+13nw2692100 0.8 1012506
12:00+15nw138054 0.3 1013658
15:00+18n226256 0.4 10121162
18:00+18nne116840 0.1 1013538
21:00+13ssw22850 0.1 101332
19 may, wed
wed1900:00+13ssw32710 0.0 101237
03:00+12ssw32500 0.0 101130
06:00+14s12470 0.0 101049
09:00+21nne23411 0.0 1008754
12:00+24n43441 0.0 10081163
15:00+22nnw445198 0.2 10111466
18:00+12nw3798100 5.8 1017460
21:00+12ene0198100 6.9 101893
20 may, thu
thu2000:00+12ssw0195100 0.1 101860
03:00+12sse129256 0.1 101845
06:00+12ese129068 0.0 1019128
09:00+17ne335923 0.0 1018979
12:00+21nne43450 0.0 10151173
15:00+22ne43450 0.0 10151165
18:00+18ne23590 0.0 1016334
21:00+13ssw22740 0.0 101617
21 may, fri
fri2100:00+13ssw22590 0.0 101621
03:00+14ssw22570 0.0 101528
06:00+17ssw12570 0.0 101448
09:00+23nne22435 0.0 1013486
12:00+27nne32390 0.0 1012803
15:00+28nne21370 0.0 1012783
18:00+24nne12580 0.0 101264
21:00+18ssw22611 0.0 101327
22 may, sat
sat2200:00+18ssw22502 0.0 101230
03:00+18ssw33465 0.0 101234
06:00+19ssw225032 0.0 101246
09:00+27nne22353 0.0 1010585
12:00+29nne33365 0.0 1008795
15:00+31n22315 0.0 1007924
18:00+27nnw12517 0.0 100739
21:00+21ssw335493 0.0 100837